Time,TemperatureF,DewpointF,PressureIn,WindDirection,WindDirectionDegrees,WindSpeedMPH,WindSpeedGustMPH,Humidity,HourlyPrecipIn,Conditions,Clouds,dailyrainin,SoftwareType,DateUTC
2013-06-14 00:01:00,70.8,66.7,29.89,West,264,0.0,1.0,87,0.01,,---,0.01,VWS V14.01,2013-06-14 04:01:00,
2013-06-14 00:06:00,70.8,67.1,29.89,West,264,0.0,1.0,88,0.01,,---,0.01,VWS V14.01,2013-06-14 04:06:00,
2013-06-14 00:11:00,70.7,67.0,29.89,West,264,0.0,1.0,88,0.00,,---,0.00,VWS V14.01,2013-06-14 04:11:00,
2013-06-14 00:16:00,70.5,66.8,29.89,West,264,1.0,2.0,88,0.00,,---,0.00,VWS V14.01,2013-06-14 04:16:00,
2013-06-14 00:21:00,70.4,66.7,29.89,West,264,0.0,2.0,88,0.00,,---,0.00,VWS V14.01,2013-06-14 04:21:00,
2013-06-14 00:26:00,70.3,66.9,29.89,West,264,0.0,2.0,89,0.00,,---,0.00,VWS V14.01,2013-06-14 04:26:00,
2013-06-14 00:31:00,70.1,66.7,29.89,West,264,0.0,2.0,89,0.00,,---,0.00,VWS V14.01,2013-06-14 04:31:00,
2013-06-14 00:36:00,70.0,66.6,29.90,West,264,0.0,2.0,89,0.00,,---,0.00,VWS V14.01,2013-06-14 04:36:00,
2013-06-14 00:41:00,69.9,66.5,29.89,West,264,1.0,1.0,89,0.00,,---,0.00,VWS V14.01,2013-06-14 04:41:00,
2013-06-14 00:46:00,69.7,66.6,29.90,West,264,0.0,1.0,90,0.00,,---,0.00,VWS V14.01,2013-06-14 04:46:00,
2013-06-14 00:51:00,69.6,66.5,29.91,West,265,0.0,2.0,90,0.00,,---,0.00,VWS V14.01,2013-06-14 04:51:00,
2013-06-14 00:56:00,69.5,66.4,29.91,NNW,330,1.0,3.0,90,0.00,,---,0.00,VWS V14.01,2013-06-14 04:56:00,
2013-06-14 01:01:00,69.5,66.4,29.91,NNW,330,0.0,3.0,90,0.00,,---,0.00,VWS V14.01,2013-06-14 05:01:00,
2013-06-14 01:06:00,69.4,66.3,29.91,NNW,331,0.0,3.0,90,0.00,,---,0.00,VWS V14.01,2013-06-14 05:06:00,
2013-06-14 01:11:00,69.4,66.3,29.91,NNW,330,0.0,1.0,90,0.00,,---,0.00,VWS V14.01,2013-06-14 05:11:00,
2013-06-14 01:16:00,69.3,66.6,29.91,NW,308,0.0,3.0,91,0.00,,---,0.00,VWS V14.01,2013-06-14 05:16:00,
2013-06-14 01:21:00,69.3,66.2,29.91,NW,311,1.0,3.0,90,0.00,,---,0.00,VWS V14.01,2013-06-14 05:21:00,
2013-06-14 01:26:00,69.4,65.7,29.91,WSW,257,4.0,10.0,88,0.00,,---,0.00,VWS V14.01,2013-06-14 05:26:00,
2013-06-14 01:31:00,69.9,65.5,29.90,West,267,2.0,10.0,86,0.00,,---,0.00,VWS V14.01,2013-06-14 05:31:00,
2013-06-14 01:35:00,70.3,65.2,29.90,West,277,0.0,10.0,84,0.00,,---,0.00,VWS V14.01,2013-06-14 05:35:00,
2013-06-14 01:40:00,70.6,65.2,29.90,West,269,2.0,5.0,83,0.00,,---,0.00,VWS V14.01,2013-06-14 05:40:00,
2013-06-14 01:45:00,70.7,64.6,29.90,WSW,242,2.0,6.0,81,0.00,,---,0.00,VWS V14.01,2013-06-14 05:45:00,
2013-06-14 01:50:00,70.7,63.9,29.90,West,273,3.0,6.0,79,0.00,,---,0.00,VWS V14.01,2013-06-14 05:50:00,
2013-06-14 01:55:00,70.7,63.5,29.90,NNE,26,2.0,7.0,78,0.00,,---,0.00,VWS V14.01,2013-06-14 05:55:00,
2013-06-14 02:00:00,70.8,63.2,29.91,West,263,3.0,7.0,77,0.00,,---,0.00,VWS V14.01,2013-06-14 06:00:00,
2013-06-14 02:05:00,70.7,63.1,29.90,West,279,1.0,7.0,77,0.00,,---,0.00,VWS V14.01,2013-06-14 06:05:00,
2013-06-14 02:10:00,70.6,63.0,29.90,West,268,2.0,3.0,77,0.00,,---,0.00,VWS V14.01,2013-06-14 06:10:00,
2013-06-14 02:15:00,70.4,62.5,29.90,SSW,211,1.0,4.0,76,0.00,,---,0.00,VWS V14.01,2013-06-14 06:15:00,
2013-06-14 02:20:00,70.3,62.8,29.90,West,273,1.0,4.0,77,0.00,,---,0.00,VWS V14.01,2013-06-14 06:20:00,
2013-06-14 02:25:00,70.1,62.2,29.91,WNW,298,1.0,4.0,76,0.00,,---,0.00,VWS V14.01,2013-06-14 06:25:00,
2013-06-14 02:30:00,69.9,62.4,29.91,WSW,250,3.0,6.0,77,0.00,,---,0.00,VWS V14.01,2013-06-14 06:30:00,
2013-06-14 02:35:00,69.7,62.2,29.91,WSW,250,0.0,6.0,77,0.00,,---,0.00,VWS V14.01,2013-06-14 06:35:00,
2013-06-14 02:40:00,69.5,62.0,29.91,WSW,251,0.0,4.0,77,0.00,,---,0.00,VWS V14.01,2013-06-14 06:40:00,
2013-06-14 02:45:00,69.3,62.2,29.91,West,259,0.0,4.0,78,0.00,,---,0.00,VWS V14.01,2013-06-14 06:45:00,
2013-06-14 02:50:00,69.1,62.0,29.91,WSW,255,3.0,4.0,78,0.00,,---,0.00,VWS V14.01,2013-06-14 06:50:00,
2013-06-14 02:55:00,68.8,62.0,29.90,WSW,244,0.0,4.0,79,0.00,,---,0.00,VWS V14.01,2013-06-14 06:55:00,
2013-06-14 03:00:00,68.5,61.7,29.90,West,259,0.0,4.0,79,0.00,,---,0.00,VWS V14.01,2013-06-14 07:00:00,
2013-06-14 03:05:00,68.3,61.2,29.90,West,271,1.0,4.0,78,0.00,,---,0.00,VWS V14.01,2013-06-14 07:05:00,
2013-06-14 03:10:00,68.1,61.7,29.91,West,271,0.0,2.0,80,0.00,,---,0.00,VWS V14.01,2013-06-14 07:10:00,
2013-06-14 03:15:00,67.9,61.9,29.91,SW,232,0.0,2.0,81,0.00,,---,0.00,VWS V14.01,2013-06-14 07:15:00,
2013-06-14 03:20:00,67.7,61.3,29.91,SW,232,0.0,2.0,80,0.00,,---,0.00,VWS V14.01,2013-06-14 07:20:00,
2013-06-14 03:25:00,67.5,61.1,29.90,SW,232,0.0,2.0,80,0.00,,---,0.00,VWS V14.01,2013-06-14 07:25:00,
2013-06-14 03:30:00,67.2,61.2,29.90,SW,232,0.0,2.0,81,0.00,,---,0.00,VWS V14.01,2013-06-14 07:30:00,
2013-06-14 03:35:00,67.0,61.3,29.90,SW,232,1.0,2.0,82,0.00,,---,0.00,VWS V14.01,2013-06-14 07:35:00,
2013-06-14 03:40:00,66.8,61.5,29.90,SW,232,0.0,2.0,83,0.00,,---,0.00,VWS V14.01,2013-06-14 07:40:00,
2013-06-14 03:45:00,66.6,61.6,29.90,SW,234,0.0,2.0,84,0.00,,---,0.00,VWS V14.01,2013-06-14 07:45:00,
2013-06-14 03:50:00,66.4,61.4,29.90,SW,234,0.0,2.0,84,0.00,,---,0.00,VWS V14.01,2013-06-14 07:50:00,
2013-06-14 03:55:00,66.1,61.5,29.91,SW,234,0.0,2.0,85,0.00,,---,0.00,VWS V14.01,2013-06-14 07:55:00,
2013-06-14 04:00:00,65.9,61.3,29.91,SW,234,0.0,2.0,85,0.00,,---,0.00,VWS V14.01,2013-06-14 08:00:00,
2013-06-14 04:05:00,65.6,61.0,29.91,SW,234,0.0,2.0,85,0.00,,---,0.00,VWS V14.01,2013-06-14 08:05:00,
2013-06-14 04:10:00,65.3,61.0,29.91,SW,234,1.0,1.0,86,0.00,,---,0.00,VWS V14.01,2013-06-14 08:10:00,
2013-06-14 04:15:00,65.1,61.1,29.91,SW,234,0.0,1.0,87,0.00,,---,0.00,VWS V14.01,2013-06-14 08:15:00,
2013-06-14 04:20:00,64.9,60.9,29.91,SW,234,0.0,1.0,87,0.00,,---,0.00,VWS V14.01,2013-06-14 08:20:00,
2013-06-14 04:25:00,64.7,60.8,29.91,SW,234,0.0,1.0,87,0.00,,---,0.00,VWS V14.01,2013-06-14 08:25:00,
2013-06-14 04:30:00,64.5,60.9,29.92,SW,234,0.0,1.0,88,0.00,,---,0.00,VWS V14.01,2013-06-14 08:30:00,
2013-06-14 04:35:00,64.3,60.7,29.92,SW,234,0.0,1.0,88,0.00,,---,0.00,VWS V14.01,2013-06-14 08:35:00,
2013-06-14 04:40:00,64.1,60.5,29.92,SW,234,0.0,1.0,88,0.00,,---,0.00,VWS V14.01,2013-06-14 08:40:00,
2013-06-14 04:45:00,63.9,60.3,29.92,SW,234,0.0,1.0,88,0.00,,---,0.00,VWS V14.01,2013-06-14 08:45:00,
2013-06-14 04:50:00,63.8,60.2,29.92,SW,234,0.0,1.0,88,0.00,,---,0.00,VWS V14.01,2013-06-14 08:50:00,
2013-06-14 04:55:00,63.6,60.0,29.92,SW,234,0.0,1.0,88,0.00,,---,0.00,VWS V14.01,2013-06-14 08:55:00,
2013-06-14 05:00:00,63.5,60.2,29.93,SW,234,0.0,1.0,89,0.00,,---,0.00,VWS V14.01,2013-06-14 09:00:00,
2013-06-14 05:05:00,63.3,60.0,29.92,SW,234,0.0,1.0,89,0.00,,---,0.00,VWS V14.01,2013-06-14 09:05:00,
2013-06-14 05:10:00,63.1,59.8,29.92,SW,234,0.0,0.0,89,0.00,,---,0.00,VWS V14.01,2013-06-14 09:10:00,
2013-06-14 05:15:00,62.9,59.6,29.92,SW,234,0.0,0.0,89,0.00,,---,0.00,VWS V14.01,2013-06-14 09:15:00,
2013-06-14 05:20:00,62.6,59.3,29.92,SW,234,0.0,1.0,89,0.00,,---,0.00,VWS V14.01,2013-06-14 09:20:00,
2013-06-14 05:25:00,62.3,59.3,29.92,SW,234,0.0,1.0,90,0.00,,---,0.00,VWS V14.01,2013-06-14 09:25:00,
2013-06-14 05:30:00,62.1,59.1,29.93,SW,234,0.0,1.0,90,0.00,,---,0.00,VWS V14.01,2013-06-14 09:30:00,
2013-06-14 05:35:00,62.0,59.0,29.93,SW,234,0.0,1.0,90,0.00,,---,0.00,VWS V14.01,2013-06-14 09:35:00,
2013-06-14 05:40:00,61.8,58.8,29.93,SW,234,0.0,0.0,90,0.00,,---,0.00,VWS V14.01,2013-06-14 09:40:00,
2013-06-14 05:45:00,61.6,58.6,29.93,SW,234,0.0,0.0,90,0.00,,---,0.00,VWS V14.01,2013-06-14 09:45:00,
2013-06-14 05:50:00,61.4,58.5,29.94,SW,234,0.0,1.0,90,0.00,,---,0.00,VWS V14.01,2013-06-14 09:50:00,
2013-06-14 05:55:00,61.2,58.6,29.94,SW,234,0.0,1.0,91,0.00,,---,0.00,VWS V14.01,2013-06-14 09:55:00,
2013-06-14 06:00:00,60.9,58.3,29.94,SW,234,0.0,1.0,91,0.00,,---,0.00,VWS V14.01,2013-06-14 10:00:00,
2013-06-14 06:05:00,60.8,58.5,29.94,SW,234,0.0,1.0,92,0.00,,---,0.00,VWS V14.01,2013-06-14 10:05:00,
2013-06-14 06:10:00,60.7,58.4,29.94,SW,234,0.0,0.0,92,0.00,,---,0.00,VWS V14.01,2013-06-14 10:10:00,
2013-06-14 06:15:00,60.6,58.3,29.95,SW,234,0.0,0.0,92,0.00,,---,0.00,VWS V14.01,2013-06-14 10:15:00,
2013-06-14 06:20:00,60.5,58.2,29.95,SW,234,0.0,0.0,92,0.00,,---,0.00,VWS V14.01,2013-06-14 10:20:00,
2013-06-14 06:25:00,60.3,58.0,29.95,SW,234,0.0,1.0,92,0.00,,---,0.00,VWS V14.01,2013-06-14 10:25:00,
2013-06-14 06:30:00,60.3,58.0,29.95,SW,234,0.0,1.0,92,0.00,,---,0.00,VWS V14.01,2013-06-14 10:30:00,
2013-06-14 06:35:00,60.4,58.4,29.96,SW,234,0.0,1.0,93,0.00,,---,0.00,VWS V14.01,2013-06-14 10:35:00,
2013-06-14 06:40:00,60.6,58.6,29.96,SW,234,1.0,1.0,93,0.00,,---,0.00,VWS V14.01,2013-06-14 10:40:00,
2013-06-14 06:45:00,60.9,58.6,29.96,SW,234,0.0,1.0,92,0.00,,---,0.00,VWS V14.01,2013-06-14 10:45:00,
2013-06-14 06:50:00,61.0,58.7,29.96,SW,234,0.0,1.0,92,0.00,,---,0.00,VWS V14.01,2013-06-14 10:50:00,
2013-06-14 06:55:00,61.1,58.8,29.96,SW,234,0.0,1.0,92,0.00,,---,0.00,VWS V14.01,2013-06-14 10:55:00,
2013-06-14 07:00:00,61.1,58.8,29.96,SW,234,0.0,1.0,92,0.00,,---,0.00,VWS V14.01,2013-06-14 11:00:00,
2013-06-14 07:05:00,61.1,58.8,29.96,SW,234,0.0,1.0,92,0.00,,---,0.00,VWS V14.01,2013-06-14 11:05:00,
2013-06-14 07:10:00,61.1,59.1,29.97,SW,234,0.0,1.0,93,0.00,,---,0.00,VWS V14.01,2013-06-14 11:10:00,
2013-06-14 07:15:00,61.2,59.2,29.97,SW,234,0.0,1.0,93,0.00,,---,0.00,VWS V14.01,2013-06-14 11:15:00,
2013-06-14 07:20:00,61.3,59.3,29.97,SW,230,0.0,1.0,93,0.00,,---,0.00,VWS V14.01,2013-06-14 11:20:00,
2013-06-14 07:25:00,61.3,59.3,29.97,SW,230,0.0,1.0,93,0.00,,---,0.00,VWS V14.01,2013-06-14 11:25:00,
2013-06-14 07:30:00,61.5,59.5,29.97,SW,230,0.0,1.0,93,0.00,,---,0.00,VWS V14.01,2013-06-14 11:30:00,
2013-06-14 07:35:00,61.7,59.7,29.97,SW,230,1.0,1.0,93,0.00,,---,0.00,VWS V14.01,2013-06-14 11:35:00,
2013-06-14 07:39:00,61.9,60.2,29.97,SW,230,1.0,1.0,94,0.00,,---,0.00,VWS V14.01,2013-06-14 11:39:00,
2013-06-14 07:44:00,62.3,60.6,29.97,WSW,256,1.0,2.0,94,0.00,,---,0.00,VWS V14.01,2013-06-14 11:44:00,
2013-06-14 07:49:00,63.2,61.5,29.97,WSW,256,1.0,2.0,94,0.00,,---,0.00,VWS V14.01,2013-06-14 11:49:00,
2013-06-14 07:54:00,64.7,62.9,29.97,WSW,256,0.0,2.0,94,0.00,,---,0.00,VWS V14.01,2013-06-14 11:54:00,
2013-06-14 07:59:00,66.1,63.4,29.97,WSW,253,1.0,2.0,91,0.00,,---,0.00,VWS V14.01,2013-06-14 11:59:00,
2013-06-14 08:04:00,67.7,64.0,29.97,WSW,254,0.0,2.0,88,0.00,,---,0.00,VWS V14.01,2013-06-14 12:04:00,
2013-06-14 08:09:00,69.4,65.0,29.97,WSW,254,0.0,0.0,86,0.00,,---,0.00,VWS V14.01,2013-06-14 12:09:00,
2013-06-14 08:14:00,71.1,63.9,29.97,WSW,256,0.0,2.0,78,0.00,,---,0.00,VWS V14.01,2013-06-14 12:14:00,
2013-06-14 08:19:00,71.8,65.3,29.98,WSW,256,0.0,2.0,80,0.00,,---,0.00,VWS V14.01,2013-06-14 12:19:00,
2013-06-14 08:24:00,72.6,66.1,29.98,WSW,254,1.0,2.0,80,0.00,,---,0.00,VWS V14.01,2013-06-14 12:24:00,
2013-06-14 08:29:00,73.5,66.2,29.98,WSW,257,2.0,2.0,78,0.00,,---,0.00,VWS V14.01,2013-06-14 12:29:00,
2013-06-14 08:34:00,74.3,66.6,29.98,WNW,285,0.0,3.0,77,0.00,,---,0.00,VWS V14.01,2013-06-14 12:34:00,
2013-06-14 08:39:00,75.3,66.4,29.98,WSW,253,1.0,3.0,74,0.00,,---,0.00,VWS V14.01,2013-06-14 12:39:00,
2013-06-14 08:44:00,75.7,65.2,29.98,WSW,257,3.0,4.0,70,0.00,,---,0.00,VWS V14.01,2013-06-14 12:44:00,
2013-06-14 08:49:00,75.8,64.9,29.98,WSW,237,3.0,4.0,69,0.00,,---,0.00,VWS V14.01,2013-06-14 12:49:00,
2013-06-14 08:54:00,75.9,65.0,29.98,West,263,2.0,4.0,69,0.00,,---,0.00,VWS V14.01,2013-06-14 12:54:00,
2013-06-14 08:59:00,76.0,64.3,29.98,SW,219,1.0,5.0,67,0.00,,---,0.00,VWS V14.01,2013-06-14 12:59:00,
2013-06-14 09:04:00,75.8,64.5,29.98,SSW,196,2.0,5.0,68,0.00,,---,0.00,VWS V14.01,2013-06-14 13:04:00,
2013-06-14 09:09:00,75.7,65.2,29.99,WNW,282,3.0,4.0,70,0.00,,---,0.00,VWS V14.01,2013-06-14 13:09:00,
2013-06-14 09:14:00,76.0,65.9,29.99,West,264,3.0,5.0,71,0.00,,---,0.00,VWS V14.01,2013-06-14 13:14:00,
2013-06-14 09:19:00,76.7,66.2,29.99,West,267,1.0,5.0,70,0.00,,---,0.00,VWS V14.01,2013-06-14 13:19:00,
2013-06-14 09:24:00,76.8,64.6,29.99,SE,142,1.0,5.0,66,0.00,,---,0.00,VWS V14.01,2013-06-14 13:24:00,
2013-06-14 09:29:00,76.6,65.7,29.99,WNW,299,3.0,5.0,69,0.00,,---,0.00,VWS V14.01,2013-06-14 13:29:00,
2013-06-14 09:34:00,76.6,65.7,29.99,WSW,251,3.0,5.0,69,0.00,,---,0.00,VWS V14.01,2013-06-14 13:34:00,
2013-06-14 09:39:00,77.1,64.4,29.99,WNW,289,4.0,4.0,65,0.00,,---,0.00,VWS V14.01,2013-06-14 13:39:00,
2013-06-14 09:44:00,77.7,66.3,29.99,WSW,250,2.0,5.0,68,0.00,,---,0.00,VWS V14.01,2013-06-14 13:44:00,
2013-06-14 09:49:00,78.7,66.0,29.99,West,265,3.0,5.0,65,0.00,,---,0.00,VWS V14.01,2013-06-14 13:49:00,
2013-06-14 09:54:00,78.4,65.7,29.99,West,275,2.0,7.0,65,0.00,,---,0.00,VWS V14.01,2013-06-14 13:54:00,
2013-06-14 09:59:00,78.4,66.1,29.99,South,181,2.0,7.0,66,0.00,,---,0.00,VWS V14.01,2013-06-14 13:59:00,
2013-06-14 10:04:00,78.7,66.8,29.99,WSW,243,2.0,7.0,67,0.00,,---,0.00,VWS V14.01,2013-06-14 14:04:00,
2013-06-14 10:09:00,79.0,65.8,29.99,West,264,1.0,3.0,64,0.00,,---,0.00,VWS V14.01,2013-06-14 14:09:00,
2013-06-14 10:14:00,79.1,65.4,29.99,WNW,296,10.0,10.0,63,0.00,,---,0.00,VWS V14.01,2013-06-14 14:14:00,
2013-06-14 10:19:00,79.1,65.4,29.99,West,273,3.0,10.0,63,0.00,,---,0.00,VWS V14.01,2013-06-14 14:19:00,
2013-06-14 10:24:00,79.4,65.7,29.99,WSW,253,4.0,10.0,63,0.00,,---,0.00,VWS V14.01,2013-06-14 14:24:00,
2013-06-14 10:29:00,79.6,65.9,29.99,SW,232,3.0,10.0,63,0.00,,---,0.00,VWS V14.01,2013-06-14 14:29:00,
2013-06-14 10:34:00,79.8,67.0,29.99,NW,316,0.0,10.0,65,0.00,,---,0.00,VWS V14.01,2013-06-14 14:34:00,
2013-06-14 10:39:00,80.0,65.4,29.99,SSE,161,5.0,5.0,61,0.00,,---,0.00,VWS V14.01,2013-06-14 14:39:00,
2013-06-14 10:44:00,80.0,66.7,29.99,West,260,1.0,6.0,64,0.00,,---,0.00,VWS V14.01,2013-06-14 14:44:00,
2013-06-14 10:49:00,80.0,67.2,29.98,SW,229,1.0,6.0,65,0.00,,---,0.00,VWS V14.01,2013-06-14 14:49:00,
2013-06-14 10:54:00,80.2,66.5,29.99,WSW,250,1.0,6.0,63,0.00,,---,0.00,VWS V14.01,2013-06-14 14:54:00,
2013-06-14 10:59:00,80.6,68.2,29.98,WSW,257,3.0,6.0,66,0.00,,---,0.00,VWS V14.01,2013-06-14 14:59:00,
2013-06-14 11:04:00,80.7,67.4,29.98,SW,221,2.0,6.0,64,0.00,,---,0.00,VWS V14.01,2013-06-14 15:04:00,
2013-06-14 11:09:00,80.8,65.6,29.98,WNW,287,4.0,5.0,60,0.00,,---,0.00,VWS V14.01,2013-06-14 15:09:00,
2013-06-14 11:14:00,80.9,65.2,29.98,WSW,258,5.0,8.0,59,0.00,,---,0.00,VWS V14.01,2013-06-14 15:14:00,
2013-06-14 11:19:00,81.1,65.4,29.98,South,178,2.0,8.0,59,0.00,,---,0.00,VWS V14.01,2013-06-14 15:19:00,
2013-06-14 11:24:00,81.3,64.6,29.99,WSW,237,4.0,8.0,57,0.00,,---,0.00,VWS V14.01,2013-06-14 15:24:00,
2013-06-14 11:29:00,81.7,65.5,29.98,WSW,249,1.0,8.0,58,0.00,,---,0.00,VWS V14.01,2013-06-14 15:29:00,
2013-06-14 11:34:00,82.5,67.7,29.99,WNW,291,1.0,8.0,61,0.00,,---,0.00,VWS V14.01,2013-06-14 15:34:00,
2013-06-14 11:39:00,82.7,63.8,29.99,SSE,167,2.0,5.0,53,0.00,,---,0.00,VWS V14.01,2013-06-14 15:39:00,
2013-06-14 11:44:00,82.3,63.5,29.99,WSW,250,0.0,5.0,53,0.00,,---,0.00,VWS V14.01,2013-06-14 15:44:00,
2013-06-14 11:49:00,82.3,65.6,29.98,SW,234,2.0,7.0,57,0.00,,---,0.00,VWS V14.01,2013-06-14 15:49:00,
2013-06-14 11:54:00,82.5,63.7,29.99,SE,132,3.0,7.0,53,0.00,,---,0.00,VWS V14.01,2013-06-14 15:54:00,
2013-06-14 11:59:00,82.3,66.6,29.98,West,271,2.0,9.0,59,0.00,,---,0.00,VWS V14.01,2013-06-14 15:59:00,
2013-06-14 12:04:00,82.5,63.1,29.99,SSW,209,3.0,9.0,52,0.00,,---,0.00,VWS V14.01,2013-06-14 16:04:00,
2013-06-14 12:09:00,82.4,63.6,29.99,SW,236,6.0,6.0,53,0.00,,---,0.00,VWS V14.01,2013-06-14 16:09:00,
2013-06-14 12:14:00,82.2,65.5,29.99,WNW,282,4.0,9.0,57,0.00,,---,0.00,VWS V14.01,2013-06-14 16:14:00,
2013-06-14 12:19:00,82.4,65.7,29.99,West,279,2.0,9.0,57,0.00,,---,0.00,VWS V14.01,2013-06-14 16:19:00,
2013-06-14 12:24:00,82.8,66.5,29.99,NW,313,2.0,9.0,58,0.00,,---,0.00,VWS V14.01,2013-06-14 16:24:00,
2013-06-14 12:29:00,83.0,63.6,29.99,WSW,250,1.0,9.0,52,0.00,,---,0.00,VWS V14.01,2013-06-14 16:29:00,
2013-06-14 12:34:00,82.9,65.1,29.99,West,269,2.0,9.0,55,0.00,,---,0.00,VWS V14.01,2013-06-14 16:34:00,
2013-06-14 12:39:00,82.9,67.1,29.99,West,281,4.0,5.0,59,0.00,,---,0.00,VWS V14.01,2013-06-14 16:39:00,
2013-06-14 12:44:00,82.9,65.6,29.99,West,279,2.0,6.0,56,0.00,,---,0.00,VWS V14.01,2013-06-14 16:44:00,
2013-06-14 12:49:00,82.9,65.6,29.99,WNW,291,1.0,8.0,56,0.00,,---,0.00,VWS V14.01,2013-06-14 16:49:00,
2013-06-14 12:54:00,83.1,66.3,29.99,WSW,244,2.0,8.0,57,0.00,,---,0.00,VWS V14.01,2013-06-14 16:54:00,
2013-06-14 12:59:00,83.4,66.6,29.99,WSW,241,4.0,9.0,57,0.00,,---,0.00,VWS V14.01,2013-06-14 16:59:00,
2013-06-14 13:04:00,83.6,65.2,29.99,NW,304,1.0,9.0,54,0.00,,---,0.00,VWS V14.01,2013-06-14 17:04:00,
2013-06-14 13:09:00,83.9,66.0,29.99,West,259,2.0,4.0,55,0.00,,---,0.00,VWS V14.01,2013-06-14 17:09:00,
2013-06-14 13:14:00,83.9,67.1,29.99,ESE,117,2.0,4.0,57,0.00,,---,0.00,VWS V14.01,2013-06-14 17:14:00,
2013-06-14 13:19:00,83.8,66.4,29.99,WNW,285,2.0,5.0,56,0.00,,---,0.00,VWS V14.01,2013-06-14 17:19:00,
2013-06-14 13:23:00,83.9,66.5,29.99,SW,227,2.0,6.0,56,0.00,,---,0.00,VWS V14.01,2013-06-14 17:23:00,
2013-06-14 13:28:00,83.8,65.4,29.99,WSW,252,1.0,6.0,54,0.00,,---,0.00,VWS V14.01,2013-06-14 17:28:00,
2013-06-14 13:33:00,84.0,67.1,29.99,WSW,258,4.0,6.0,57,0.00,,---,0.00,VWS V14.01,2013-06-14 17:33:00,
2013-06-14 13:38:00,84.1,65.7,29.99,West,267,4.0,4.0,54,0.00,,---,0.00,VWS V14.01,2013-06-14 17:38:00,
2013-06-14 13:43:00,84.1,66.2,29.99,WSW,241,3.0,5.0,55,0.00,,---,0.00,VWS V14.01,2013-06-14 17:43:00,
2013-06-14 13:48:00,84.2,66.8,29.99,West,271,1.0,5.0,56,0.00,,---,0.00,VWS V14.01,2013-06-14 17:48:00,
2013-06-14 13:53:00,84.5,65.0,29.99,West,280,2.0,7.0,52,0.00,,---,0.00,VWS V14.01,2013-06-14 17:53:00,
2013-06-14 13:58:00,84.6,66.1,29.98,WSW,252,2.0,7.0,54,0.00,,---,0.00,VWS V14.01,2013-06-14 17:58:00,
2013-06-14 14:03:00,84.1,65.7,29.98,West,274,1.0,7.0,54,0.00,,---,0.00,VWS V14.01,2013-06-14 18:03:00,
2013-06-14 14:08:00,83.8,64.9,29.98,SW,223,2.0,3.0,53,0.00,,---,0.00,VWS V14.01,2013-06-14 18:08:00,
2013-06-14 14:13:00,83.9,67.6,29.98,SE,145,2.0,4.0,58,0.00,,---,0.00,VWS V14.01,2013-06-14 18:13:00,
2013-06-14 14:18:00,83.9,66.5,29.98,SSE,153,4.0,8.0,56,0.00,,---,0.00,VWS V14.01,2013-06-14 18:18:00,
2013-06-14 14:23:00,84.0,67.1,29.98,NW,323,1.0,8.0,57,0.00,,---,0.00,VWS V14.01,2013-06-14 18:23:00,
2013-06-14 14:28:00,84.3,65.9,29.98,NW,316,2.0,8.0,54,0.00,,---,0.00,VWS V14.01,2013-06-14 18:28:00,
2013-06-14 14:33:00,84.5,66.6,29.98,NW,314,1.0,8.0,55,0.00,,---,0.00,VWS V14.01,2013-06-14 18:33:00,
2013-06-14 14:38:00,84.9,68.5,29.97,SW,235,2.0,3.0,58,0.00,,---,0.00,VWS V14.01,2013-06-14 18:38:00,
2013-06-14 14:43:00,85.3,68.3,29.97,WSW,258,2.0,5.0,57,0.00,,---,0.00,VWS V14.01,2013-06-14 18:43:00,
2013-06-14 14:48:00,85.4,65.8,29.97,WSW,254,3.0,7.0,52,0.00,,---,0.00,VWS V14.01,2013-06-14 18:48:00,
2013-06-14 14:53:00,85.2,66.7,29.97,SSE,156,3.0,7.0,54,0.00,,---,0.00,VWS V14.01,2013-06-14 18:53:00,
2013-06-14 14:58:00,85.1,66.1,29.97,SSE,167,1.0,7.0,53,0.00,,---,0.00,VWS V14.01,2013-06-14 18:58:00,
2013-06-14 15:03:00,85.0,66.5,29.97,WNW,290,3.0,7.0,54,0.00,,---,0.00,VWS V14.01,2013-06-14 19:03:00,
2013-06-14 15:08:00,85.0,66.5,29.97,SSW,205,2.0,5.0,54,0.00,,---,0.00,VWS V14.01,2013-06-14 19:08:00,
2013-06-14 15:13:00,85.0,67.6,29.96,West,271,2.0,5.0,56,0.00,,---,0.00,VWS V14.01,2013-06-14 19:13:00,
2013-06-14 15:18:00,85.3,67.3,29.96,WSW,239,1.0,5.0,55,0.00,,---,0.00,VWS V14.01,2013-06-14 19:18:00,
2013-06-14 15:23:00,85.8,66.7,29.96,WNW,298,2.0,7.0,53,0.00,,---,0.00,VWS V14.01,2013-06-14 19:23:00,
2013-06-14 15:28:00,85.9,66.2,29.95,NNW,342,1.0,7.0,52,0.00,,---,0.00,VWS V14.01,2013-06-14 19:28:00,
2013-06-14 15:33:00,85.5,64.2,29.95,WSW,240,3.0,9.0,49,0.00,,---,0.00,VWS V14.01,2013-06-14 19:33:00,
2013-06-14 15:38:00,85.2,64.5,29.96,West,271,3.0,3.0,50,0.00,,---,0.00,VWS V14.01,2013-06-14 19:38:00,
2013-06-14 15:43:00,85.5,64.2,29.96,WSW,250,0.0,5.0,49,0.00,,---,0.00,VWS V14.01,2013-06-14 19:43:00,
2013-06-14 15:48:00,85.8,63.9,29.96,SW,226,0.0,5.0,48,0.00,,---,0.00,VWS V14.01,2013-06-14 19:48:00,
2013-06-14 15:53:00,85.9,61.5,29.96,South,190,1.0,10.0,44,0.00,,---,0.00,VWS V14.01,2013-06-14 19:53:00,
2013-06-14 15:58:00,85.7,63.2,29.96,WNW,302,3.0,10.0,47,0.00,,---,0.00,VWS V14.01,2013-06-14 19:58:00,
2013-06-14 16:03:00,85.8,64.4,29.96,SSE,159,1.0,10.0,49,0.00,,---,0.00,VWS V14.01,2013-06-14 20:03:00,
2013-06-14 16:08:00,85.9,64.5,29.96,SSW,196,2.0,3.0,49,0.00,,---,0.00,VWS V14.01,2013-06-14 20:08:00,
2013-06-14 16:13:00,86.0,62.2,29.96,SSE,165,1.0,5.0,45,0.00,,---,0.00,VWS V14.01,2013-06-14 20:13:00,
2013-06-14 16:18:00,86.1,64.7,29.96,WNW,297,1.0,6.0,49,0.00,,---,0.00,VWS V14.01,2013-06-14 20:18:00,
2013-06-14 16:23:00,86.1,64.1,29.96,WSW,256,3.0,6.0,48,0.00,,---,0.00,VWS V14.01,2013-06-14 20:23:00,
2013-06-14 16:28:00,86.1,64.1,29.96,SW,227,1.0,6.0,48,0.00,,---,0.00,VWS V14.01,2013-06-14 20:28:00,
2013-06-14 16:33:00,86.0,64.0,29.96,SSE,157,2.0,12.0,48,0.00,,---,0.00,VWS V14.01,2013-06-14 20:33:00,
2013-06-14 16:38:00,85.7,63.2,29.96,West,259,2.0,4.0,47,0.00,,---,0.00,VWS V14.01,2013-06-14 20:38:00,
2013-06-14 16:43:00,85.9,65.7,29.96,WNW,301,5.0,6.0,51,0.00,,---,0.00,VWS V14.01,2013-06-14 20:43:00,
2013-06-14 16:48:00,86.0,65.2,29.96,SW,217,1.0,6.0,50,0.00,,---,0.00,VWS V14.01,2013-06-14 20:48:00,
2013-06-14 16:53:00,85.9,64.0,29.96,SW,232,2.0,6.0,48,0.00,,---,0.00,VWS V14.01,2013-06-14 20:53:00,
2013-06-14 16:58:00,85.6,64.8,29.96,WSW,244,2.0,6.0,50,0.00,,---,0.00,VWS V14.01,2013-06-14 20:58:00,
2013-06-14 17:03:00,85.0,62.5,29.96,SW,225,0.0,6.0,47,0.00,,---,0.00,VWS V14.01,2013-06-14 21:03:00,
2013-06-14 17:08:00,84.4,64.3,29.97,West,271,2.0,4.0,51,0.00,,---,0.00,VWS V14.01,2013-06-14 21:08:00,
2013-06-14 17:13:00,83.8,62.6,29.97,WSW,252,2.0,10.0,49,0.00,,---,0.00,VWS V14.01,2013-06-14 21:13:00,
2013-06-14 17:18:00,83.3,63.9,29.97,WSW,248,2.0,10.0,52,0.00,,---,0.00,VWS V14.01,2013-06-14 21:18:00,
2013-06-14 17:23:00,82.9,62.4,29.96,WSW,246,1.0,10.0,50,0.00,,---,0.00,VWS V14.01,2013-06-14 21:23:00,
2013-06-14 17:28:00,82.7,63.3,29.96,West,259,1.0,10.0,52,0.00,,---,0.00,VWS V14.01,2013-06-14 21:28:00,
2013-06-14 17:33:00,82.4,64.6,29.96,SW,214,1.0,10.0,55,0.00,,---,0.00,VWS V14.01,2013-06-14 21:33:00,
2013-06-14 17:38:00,82.2,63.4,29.96,North,355,1.0,3.0,53,0.00,,---,0.00,VWS V14.01,2013-06-14 21:38:00,
2013-06-14 17:43:00,82.1,63.3,29.96,WSW,252,4.0,6.0,53,0.00,,---,0.00,VWS V14.01,2013-06-14 21:43:00,
2013-06-14 17:48:00,82.0,64.8,29.96,WNW,290,1.0,6.0,56,0.00,,---,0.00,VWS V14.01,2013-06-14 21:48:00,
2013-06-14 17:53:00,81.9,64.7,29.96,South,188,0.0,6.0,56,0.00,,---,0.00,VWS V14.01,2013-06-14 21:53:00,
2013-06-14 17:58:00,81.9,64.2,29.96,WSW,239,2.0,9.0,55,0.00,,---,0.00,VWS V14.01,2013-06-14 21:58:00,
2013-06-14 18:03:00,81.7,63.5,29.95,WSW,238,2.0,9.0,54,0.00,,---,0.00,VWS V14.01,2013-06-14 22:03:00,
2013-06-14 18:08:00,81.5,63.3,29.95,SW,223,4.0,6.0,54,0.00,,---,0.00,VWS V14.01,2013-06-14 22:08:00,
2013-06-14 18:13:00,81.3,63.6,29.95,WSW,248,2.0,8.0,55,0.00,,---,0.00,VWS V14.01,2013-06-14 22:13:00,
2013-06-14 18:18:00,81.2,63.0,29.95,WSW,240,2.0,8.0,54,0.00,,---,0.00,VWS V14.01,2013-06-14 22:18:00,
2013-06-14 18:23:00,81.2,64.0,29.95,NW,314,1.0,8.0,56,0.00,,---,0.00,VWS V14.01,2013-06-14 22:23:00,
2013-06-14 18:28:00,81.2,64.0,29.96,SW,225,3.0,8.0,56,0.00,,---,0.00,VWS V14.01,2013-06-14 22:28:00,
2013-06-14 18:33:00,81.1,64.4,29.96,SE,140,5.0,8.0,57,0.00,,---,0.00,VWS V14.01,2013-06-14 22:33:00,
2013-06-14 18:38:00,81.1,63.9,29.96,West,277,2.0,3.0,56,0.00,,---,0.00,VWS V14.01,2013-06-14 22:38:00,
2013-06-14 18:43:00,81.1,64.9,29.96,WSW,241,2.0,3.0,58,0.00,,---,0.00,VWS V14.01,2013-06-14 22:43:00,
2013-06-14 18:48:00,81.0,65.3,29.96,SE,126,1.0,3.0,59,0.00,,---,0.00,VWS V14.01,2013-06-14 22:48:00,
2013-06-14 18:53:00,80.9,64.2,29.96,WNW,292,2.0,4.0,57,0.00,,---,0.00,VWS V14.01,2013-06-14 22:53:00,
2013-06-14 18:58:00,80.9,64.2,29.97,WSW,238,4.0,5.0,57,0.00,,---,0.00,VWS V14.01,2013-06-14 22:58:00,
2013-06-14 19:03:00,81.0,63.3,29.97,West,267,1.0,6.0,55,0.00,,---,0.00,VWS V14.01,2013-06-14 23:03:00,
2013-06-14 19:08:00,80.8,63.7,29.96,WSW,258,3.0,4.0,56,0.00,,---,0.00,VWS V14.01,2013-06-14 23:08:00,
2013-06-14 19:13:00,80.6,64.5,29.96,NW,325,0.0,4.0,58,0.00,,---,0.00,VWS V14.01,2013-06-14 23:13:00,
2013-06-14 19:17:00,80.3,64.7,29.96,SSW,205,1.0,4.0,59,0.00,,---,0.00,VWS V14.01,2013-06-14 23:17:00,
2013-06-14 19:22:00,80.1,64.0,29.97,West,277,6.0,6.0,58,0.00,,---,0.00,VWS V14.01,2013-06-14 23:22:00,
2013-06-14 19:27:00,79.8,64.2,29.96,West,266,1.0,6.0,59,0.00,,---,0.00,VWS V14.01,2013-06-14 23:27:00,
2013-06-14 19:32:00,79.5,64.4,29.97,West,276,0.0,6.0,60,0.00,,---,0.00,VWS V14.01,2013-06-14 23:32:00,
2013-06-14 19:37:00,79.3,63.7,29.97,West,263,0.0,1.0,59,0.00,,---,0.00,VWS V14.01,2013-06-14 23:37:00,
2013-06-14 19:42:00,78.9,63.4,29.97,NW,313,2.0,3.0,59,0.00,,---,0.00,VWS V14.01,2013-06-14 23:42:00,
2013-06-14 19:47:00,78.7,64.1,29.97,West,261,1.0,3.0,61,0.00,,---,0.00,VWS V14.01,2013-06-14 23:47:00,
2013-06-14 19:52:00,78.3,65.6,29.97,West,261,2.0,3.0,65,0.00,,---,0.00,VWS V14.01,2013-06-14 23:52:00,
2013-06-14 19:57:00,77.9,64.3,29.97,WSW,240,0.0,5.0,63,0.00,,---,0.00,VWS V14.01,2013-06-14 23:57:00,
2013-06-14 20:02:00,77.4,65.2,29.97,WSW,240,0.0,5.0,66,0.00,,---,0.00,VWS V14.01,2013-06-15 00:02:00,
2013-06-14 20:07:00,76.8,64.2,29.97,WSW,252,1.0,1.0,65,0.00,,---,0.00,VWS V14.01,2013-06-15 00:07:00,
2013-06-14 20:12:00,76.3,64.1,29.97,WSW,244,0.0,4.0,66,0.00,,---,0.00,VWS V14.01,2013-06-15 00:12:00,
2013-06-14 20:17:00,75.6,64.3,29.97,WSW,244,0.0,4.0,68,0.00,,---,0.00,VWS V14.01,2013-06-15 00:17:00,
2013-06-14 20:22:00,75.0,63.3,29.98,WSW,244,0.0,4.0,67,0.00,,---,0.00,VWS V14.01,2013-06-15 00:22:00,
2013-06-14 20:27:00,74.5,64.1,29.98,WSW,244,0.0,4.0,70,0.00,,---,0.00,VWS V14.01,2013-06-15 00:27:00,
2013-06-14 20:32:00,74.1,63.3,29.98,WSW,244,1.0,4.0,69,0.00,,---,0.00,VWS V14.01,2013-06-15 00:32:00,
2013-06-14 20:37:00,73.8,63.4,29.98,WSW,244,0.0,1.0,70,0.00,,---,0.00,VWS V14.01,2013-06-15 00:37:00,
2013-06-14 20:42:00,73.4,63.8,29.98,WSW,244,0.0,1.0,72,0.00,,---,0.00,VWS V14.01,2013-06-15 00:42:00,
2013-06-14 20:47:00,73.0,63.8,29.98,WSW,244,0.0,1.0,73,0.00,,---,0.00,VWS V14.01,2013-06-15 00:47:00,
2013-06-14 20:52:00,72.6,64.2,29.99,WSW,244,0.0,1.0,75,0.00,,---,0.00,VWS V14.01,2013-06-15 00:52:00,
2013-06-14 20:57:00,72.3,63.9,29.99,WSW,244,0.0,1.0,75,0.00,,---,0.00,VWS V14.01,2013-06-15 00:57:00,
2013-06-14 21:02:00,71.9,63.5,29.99,WSW,244,0.0,1.0,75,0.00,,---,0.00,VWS V14.01,2013-06-15 01:02:00,
2013-06-14 21:07:00,71.6,63.3,29.99,WSW,244,0.0,0.0,75,0.00,,---,0.00,VWS V14.01,2013-06-15 01:07:00,
2013-06-14 21:12:00,71.3,63.0,29.99,WSW,244,0.0,0.0,75,0.00,,---,0.00,VWS V14.01,2013-06-15 01:12:00,
2013-06-14 21:17:00,71.0,63.1,29.99,WSW,244,0.0,0.0,76,0.00,,---,0.00,VWS V14.01,2013-06-15 01:17:00,
2013-06-14 21:22:00,70.7,63.1,29.99,WSW,244,0.0,0.0,77,0.00,,---,0.00,VWS V14.01,2013-06-15 01:22:00,
2013-06-14 21:27:00,70.4,62.8,30.00,WSW,244,0.0,0.0,77,0.00,,---,0.00,VWS V14.01,2013-06-15 01:27:00,
2013-06-14 21:32:00,70.2,63.4,30.00,WSW,244,0.0,0.0,79,0.00,,---,0.00,VWS V14.01,2013-06-15 01:32:00,
2013-06-14 21:37:00,69.9,63.1,30.00,WSW,244,0.0,0.0,79,0.00,,---,0.00,VWS V14.01,2013-06-15 01:37:00,
2013-06-14 21:42:00,69.7,63.3,30.00,WSW,244,0.0,0.0,80,0.00,,---,0.00,VWS V14.01,2013-06-15 01:42:00,
2013-06-14 21:47:00,69.4,63.0,30.00,WSW,244,0.0,0.0,80,0.00,,---,0.00,VWS V14.01,2013-06-15 01:47:00,
2013-06-14 21:52:00,69.2,62.8,30.00,WSW,244,0.0,0.0,80,0.00,,---,0.00,VWS V14.01,2013-06-15 01:52:00,
2013-06-14 21:57:00,68.9,62.8,30.00,WSW,244,0.0,0.0,81,0.00,,---,0.00,VWS V14.01,2013-06-15 01:57:00,
2013-06-14 22:02:00,68.6,62.5,30.00,WSW,244,0.0,0.0,81,0.00,,---,0.00,VWS V14.01,2013-06-15 02:02:00,
2013-06-14 22:07:00,68.3,62.6,30.00,WSW,244,0.0,0.0,82,0.00,,---,0.00,VWS V14.01,2013-06-15 02:07:00,
2013-06-14 22:12:00,68.1,62.8,30.00,WSW,244,0.0,0.0,83,0.00,,---,0.00,VWS V14.01,2013-06-15 02:12:00,
2013-06-14 22:17:00,67.9,62.5,29.99,WSW,244,0.0,0.0,83,0.00,,---,0.00,VWS V14.01,2013-06-15 02:17:00,
2013-06-14 22:22:00,67.6,62.9,30.00,WSW,244,0.0,0.0,85,0.00,,---,0.00,VWS V14.01,2013-06-15 02:22:00,
2013-06-14 22:27:00,67.4,62.4,30.00,WSW,244,0.0,0.0,84,0.00,,---,0.00,VWS V14.01,2013-06-15 02:27:00,
2013-06-14 22:32:00,67.2,62.5,30.00,WSW,244,0.0,0.0,85,0.00,,---,0.00,VWS V14.01,2013-06-15 02:32:00,
2013-06-14 22:37:00,67.1,62.8,30.01,WSW,244,0.0,0.0,86,0.00,,---,0.00,VWS V14.01,2013-06-15 02:37:00,
2013-06-14 22:42:00,67.0,62.7,30.01,WSW,244,0.0,0.0,86,0.00,,---,0.00,VWS V14.01,2013-06-15 02:42:00,
2013-06-14 22:47:00,66.8,62.5,30.01,WSW,244,0.0,1.0,86,0.00,,---,0.00,VWS V14.01,2013-06-15 02:47:00,
2013-06-14 22:52:00,66.6,62.3,30.01,WSW,244,0.0,1.0,86,0.00,,---,0.00,VWS V14.01,2013-06-15 02:52:00,
2013-06-14 22:57:00,66.4,62.1,30.02,WSW,244,0.0,1.0,86,0.00,,---,0.00,VWS V14.01,2013-06-15 02:57:00,
2013-06-14 23:02:00,66.1,62.1,30.02,WSW,244,0.0,1.0,87,0.00,,---,0.00,VWS V14.01,2013-06-15 03:02:00,
2013-06-14 23:07:00,66.0,62.0,30.02,WSW,244,0.0,0.0,87,0.00,,---,0.00,VWS V14.01,2013-06-15 03:07:00,
2013-06-14 23:12:00,65.8,62.2,30.02,WSW,244,0.0,0.0,88,0.00,,---,0.00,VWS V14.01,2013-06-15 03:12:00,
2013-06-14 23:17:00,65.6,61.6,30.02,WSW,244,0.0,0.0,87,0.00,,---,0.00,VWS V14.01,2013-06-15 03:17:00,
2013-06-14 23:22:00,65.4,61.8,30.02,WSW,244,0.0,0.0,88,0.00,,---,0.00,VWS V14.01,2013-06-15 03:22:00,
2013-06-14 23:27:00,65.2,61.6,30.02,WSW,244,0.0,1.0,88,0.00,,---,0.00,VWS V14.01,2013-06-15 03:27:00,
2013-06-14 23:32:00,65.0,61.7,30.03,WSW,244,0.0,1.0,89,0.00,,---,0.00,VWS V14.01,2013-06-15 03:32:00,
2013-06-14 23:37:00,64.9,61.6,30.03,WSW,244,0.0,0.0,89,0.00,,---,0.00,VWS V14.01,2013-06-15 03:37:00,
2013-06-14 23:42:00,64.9,61.6,30.03,WSW,244,0.0,1.0,89,0.00,,---,0.00,VWS V14.01,2013-06-15 03:42:00,
2013-06-14 23:47:00,64.8,61.5,30.03,WSW,244,0.0,1.0,89,0.00,,---,0.00,VWS V14.01,2013-06-15 03:47:00,
2013-06-14 23:52:00,64.7,61.7,30.03,WSW,244,0.0,1.0,90,0.00,,---,0.00,VWS V14.01,2013-06-15 03:52:00,
2013-06-14 23:57:00,64.7,61.7,30.04,WSW,244,0.0,1.0,90,0.00,,---,0.00,VWS V14.01,2013-06-15 03:57:00,